Starlink 32414

operational
NORAD ID: 61667 Int'l Des: 2024-193 Owner: SPXS Country: US Constellation: starlink
LEOCIRCULAR

Über Starlink 32414

Beschreibung wird geladen...

Live-Position

3D-Globus wird geladen...

Nächste Überflüge

Höhenverlauf

Altitude vs Time

uPlot chart will show altitude changes over time

Zweizeiliger Elementsatz

1 61667U 24193G 25351.71870157 -.00001049 00000-0 -23311-4 0 9997
2 61667 53.1599 111.9598 0001048 90.3990 269.7130 15.30190376 63975
Epoch: 17. Dez. 2025 • Age: 17 hours

Aktueller Status

Höhe 494.3 km
Geschwindigkeit 7.62 km/s
Subsatellitenpunkt -52.68°S, 128.2°E
Startdatum 26. Okt. 2024
Alter 1.1 years
Typ internet

Technische Details

Klassifizierung Payload
Masse 730.00 kg
Trockenmasse 700.00 kg
Gesamtmasse 730.00 kg
Länge 0.30 m
Durchmesser 4.10 m
Spannweite 29.00 m
Form Box + pan
Hersteller SPXS
Bus-Typ Starlink V2M
Phasenstatus In Orbit
Besitzer/Staat SPXS/US

Große Konstellationen

Loading constellations...